www.pogodaiklimat.ru

Погода и климат >> Архив погоды >> Филиппины >> Генерал-Сантос


ПОГОДА в Генерал-Сантосе

  • Прогноз погоды в Генерал-Сантосе
  • Монитор погоды в Генерал-Сантосе

АРХИВ ПОГОДЫ в Генерал-Сантосе

Время (UTC), дата Ветер
(напр.,м/с)
 
Видим.   Явления Облачность Т
(С)
Тd
(С)
f
(%)
Тe
(С)
Тes
(С)
Комфортность P
(гПа)
Po
(гПа)
Тmin
(С)
Tmax
(С)
R
(мм)
R24
(мм)
S
(см)
21 16.05 З 2 15 км слаб. дождь {гроза} 10/4 540 м
[St As op]
+24.2 +23.7 97 +33 +33 очень
душно
1009.7 995.0 19
00 17.05 штиль 0 15 км осадки на расстоянии {гроза} 10/3 540 м
[St As trans]
+25.2 +24.6 96 +35 +38 очень
душно
1011.7 997.0 19
03 17.05 ЮВ 2 20 км мгла {туман} 9/1 540 м
[Cu med, cong Ac As]
+29.0 +23.7 73 +40 +47 очень
душно
1011.4 996.7
06 17.05 В 1 18 км осадки на расстоянии {ливн. осадки, туман} 10/3 540 м
[St As trans]
+30.0 +23.9 70 +41 +46 опасность
перегрева
1009.8 995.0 1
09 17.05 ЮВ 2 20 км осадки на расстоянии {туман} 10/3 540 м
[Sc As trans]
+27.8 +24.1 80 +39 +39 очень
душно
1008.8 994.0
12 17.05 СЗ 2 20 км {туман} 4/1 540 м
[Cu hum Ac As Ci fib]
+26.2 +23.9 87 +36 +36 очень
душно
1009.8 995.0 +30.0
15 17.05 З 1 20 км 1/1 540 м
[Cu hum Ac trans Ci fib]
+25.4 +23.5 89 +34 +34 очень
душно
1010.8 996.0
18 17.05 штиль 0 20 км 4/1 540 м
[Cu hum Ac As]
+25.2 +23.4 90 +34 +34 очень
душно
1010.4 995.6
21 17.05 З 1 20 км 8/1 540 м
[Cu med, cong Ac As Ci fib]
+24.0 +22.1 89 +31 +31 очень
душно
1010.5 995.7
00 18.05 Ю 1 15 км мгла {туман} 1/1 540 м
[Cu hum Ci fib]
+28.3 +23.9 77 +39 +47 очень
душно
1012.8 997.0 +23.2 1
03 18.05 Ю 3 20 км мгла {туман} 1/1 540 м
[Cu med, cong Ci fib]
+31.8 +22.6 58 +41 +56 опасность
перегрева
1012.1 996.3
06 18.05 З 1 20 км мгла {гроза, туман} 3/3 600 м
[Cb calv Ac As Ci fib]
+33.2 +22.7 54 +43 +54 опасность
перегрева
1009.4 993.6
12 18.05 С 3 20 км {туман} 9/3 600 м
[Cu med, cong Ac As]
+27.2 +24.0 83 +38 +38 очень
душно
1011.9 996.1 +33.2
15 18.05 штиль 0 20 км 1/1 540 м
[Cu hum Ci fib]
+26.4 +23.8 86 +36 +36 очень
душно
1012.7 996.9
18 18.05 З 1 20 км 1/1 540 м
[Cu hum Ci fib]
+25.2 +22.2 83 +33 +33 очень
душно
1011.8 996.0
21 18.05 З 1 20 км 1/1 540 м
[Cu hum Ci fib]
+24.0 +21.9 88 +31 +31 очень
душно
1011.3 995.5
00 19.05 С 1 20 км мгла {туман} 1/1 540 м
[Cu hum Ci fib]
+28.2 +23.9 78 +39 +47 очень
душно
1013.0 997.2 +23.1
03 19.05 ЮВ 4 20 км мгла {туман} 1/1 540 м
[Cu med, cong Ci fib]
+32.0 +22.5 57 +41 +54 опасность
перегрева
1012.8 997.0
06 19.05 Ю 5 20 км мгла {туман} 3/3 600 м
[Cb calv Ci fib]
+32.6 +23.8 60 +44 +49 опасность
перегрева
1010.0 994.2
09 19.05 Ю 2 20 км {туман} 9/1 540 м
[Cb calv Ac As Ci fib]
+29.5 +24.1 73 +41 +41 опасность
перегрева
1009.7 993.9
12 19.05 СВ 2 20 км мгла {туман} 5/1 540 м
[Cu med, cong Ac As]
+27.6 +15.1 46 +30 +30 жарко 1010.9 996.0 +33.0
15 19.05 С 1 20 км 10/1 540 м
[Cu med, cong Ac As]
+27.2 +24.5 85 +38 +38 очень
душно
1011.8 996.9
18 19.05 З 1 20 км {ливн. осадки} 9/9 540 м
[]
+25.7 +24.3 92 +36 +36 очень
душно
1010.6 995.7 0.0
21 19.05 штиль 0 20 км 10/10 540 м
[]
+24.2 +24.3 100 +33 +33 очень
душно
1010.9 996.0
00 20.05 штиль 0 20 км мгла {туман} 6/3 600 м
[Cu med, cong Ac As Ci fib]
+28.2 +24.7 81 +40 +45 очень
душно
1012.0 997.1 +24.0 0.0
03 20.05 Ю 3 20 км мгла {туман} 3/3 600 м
[Cu med, cong Ci fib]
+32.0 +23.6 61 +43 +55 опасность
перегрева
1011.2 996.3
06 20.05 Ю 4 20 км мгла {туман} 3/1 540 м
[Cb calv Ac As Ci fib]
+33.0 +24.4 61 +46 +53 опасность
перегрева
1008.9 994.0
09 20.05 ЮВ 2 20 км 1/1 540 м
[Cb calv Ac As]
+30.2 +24.7 72 +43 +44 опасность
перегрева
1007.9 993.1
12 20.05 С 2 20 км 6/1 540 м
[Cu med, cong Ac As]
+27.9 +24.1 80 +39 +39 очень
душно
1010.0 995.2 +33.2
15 20.05 З 2 20 км 9/1 540 м
[Cu med, cong Ac As]
+27.2 +24.5 85 +38 +38 очень
душно
1010.8 996.0
18 20.05 штиль 0 20 км 8/1 540 м
[Cu med, cong Ac As]
+27.1 +24.4 85 +38 +38 очень
душно
1009.8 995.1
21 20.05 штиль 0 20 км 8/1 540 м
[Cu med, cong Ac As]
+25.8 +23.4 87 +35 +35 очень
душно
1010.3 995.5
00 21.05 СВ 2 18 км мгла {туман} 1/1 540 м
[Cu med, cong Ci fib]
+30.0 +23.6 69 +41 +48 опасность
перегрева
1011.3 996.5 +24.5
03 21.05 Ю 3 18 км мгла {туман} 4/3 600 м
[Cb calv Ac As Ci fib]
+32.7 +23.4 58 +43 +54 опасность
перегрева
1010.3 995.6
06 21.05 ЮЗ 1 18 км мгла {туман} 5/4 600 м
[Cb cap Ac As Ci fib]
+32.3 +23.3 59 +43 +52 опасность
перегрева
1007.9 993.2
09 21.05 ЮВ 2 20 км {туман} 8/1 540 м
[Cu med, cong Ac As]
+30.0 +23.9 70 +41 +42 опасность
перегрева
1007.6 992.8
12 21.05 С 2 20 км 10/3 540 м
[Cu med, cong Ac As]
+27.2 +25.2 89 +39 +39 очень
душно
1010.0 995.2 +34.6
15 21.05 СЗ 1 20 км 5/3 600 м
[Cu med, cong Ac As]
+26.5 +24.9 91 +38 +38 очень
душно
1011.0 996.2
18 21.05 З 1 20 км 10/3 600 м
[Cu med, cong Ac As]
+26.5 +23.8 85 +36 +36 очень
душно
1010.2 995.4
21 21.05 штиль 0 20 км 9/3 540 м
[Cu med, cong Ac As]
+25.0 +22.2 84 +32 +32 очень
душно
1010.9 996.0
00 22.05 В 1 18 км мгла {туман} 1/1 540 м
[Cu hum Ci fib]
+29.5 +23.6 71 +40 +48 очень
душно
1011.0 996.2 +24.0
03 22.05 Ю 4 18 км мгла {туман} 4/3 540 м
[Cu med, cong Ac As Ci fib]
+33.0 +23.6 58 +44 +53 опасность
перегрева
1010.4 995.6
06 22.05 Ю 2 20 км мгла {туман} 9/3 600 м
[Cu med, cong Ac As]
+32.0 +21.8 55 +41 +44 опасность
перегрева
1008.2 993.5
09 22.05 В 1 20 км мгла {гроза} 5/3 540 м
[Cu med, cong Ac As Ci fib]
+28.2 +24.4 80 +40 +40 очень
душно
1008.5 993.6 1
12 22.05 З 2 20 км зарница {ливн. осадки} 4/1 540 м
[Cb cap Ac As]
+26.2 +23.6 86 +36 +36 очень
душно
1011.0 996.1 +34.4 1
15 22.05 СЗ 1 20 км 4/1 600 м
[Cu hum Ac As]
+25.8 +23.2 86 +35 +35 очень
душно
1011.8 997.0
18 22.05 штиль 0 20 км 5/3 600 м
[Cu hum Ac As]
+25.4 +22.8 86 +34 +34 очень
душно
1010.3 995.5
21 22.05 штиль 0 20 км 9/1 540 м
[Cu med, cong Ac As]
+24.7 +21.8 84 +32 +32 очень
душно
1010.9 996.0
00 23.05 СВ 1 18 км мгла {туман} 1/1 540 м
[Cu med, cong Ci fib]
+28.8 +24.3 77 +40 +48 очень
душно
1012.3 997.4 +23.1 1
03 23.05 Ю 3 20 км мгла {туман} 4/3 600 м
[Cb calv Ac As]
+32.6 +23.8 60 +44 +55 опасность
перегрева
1011.2 996.4
06 23.05 В 1 20 км в посл. час ливневой дождь {туман} 6/3 540 м
[Cb calv Ac As Ci fib]
+33.0 +23.9 59 +45 +54 опасность
перегрева
1008.6 993.8 0.0
09 23.05 СЗ 2 20 км мгла {туман} 9/1 600 м
[Cb calv Ac As]
+30.2 +25.4 76 +44 +45 опасность
перегрева
1008.5 993.7
12 23.05 С 2 20 км зарница {гроза, туман} 1/1 540 м
[Cb calv Ci fib]
+27.8 +25.4 87 +41 +41 опасность
перегрева
1010.9 996.0 +33.0
15 23.05 З 1 20 км в посл. час ливневой дождь {гроза} 6/1 540 м
[Cu med, cong Ac As]
+25.6 +23.2 87 +34 +34 очень
душно
1012.0 997.2 0.0

 

Местоположение метеостанции Генерал-Сантос (Филиппины): широта 6.12 долгота 125.18 высота над уровнем моря 15 м.

В архиве по умолчанию представлена погода в Генерал-Сантосе за последнюю неделю. Архивные данные за месяц целиком и за предыдущие месяцы, начиная с января 2011 года, Вы можете получить, выбрав интересующий диапазон дат из раскрывающегося списка и нажав кнопку "Ввод!".


*Определитесь, кто Вы:
робот инопланетянин человек

Внимание! Время в таблицах - всемирное. Для получения местного времени необходимо прибавить поправку, которая равна 8 ч.

Смотрите также архив погоды в соседних городах и на ближайших метеорологических станциях:

Погода в Давао (Филиппины) (123 км)
Погода в Котобато (Филиппины) (158 км)
Погода в Малайбалае (Филиппины) (226 км)
Погода в Кагаян-де-Оро (Филиппины) (275 км)
Погода в Хинатуане (Филиппины) (281 км)
Погода в Бутуане (Филиппины) (315 км)
Погода в Дипологе (Филиппины) (342 км)
Погода в Замбоанге (Филиппины) (356 км)
Погода в Думагете (Филиппины) (410 км)
Погода в Серигао Сити (Филиппины) (411 км)

Пояснения к столбцам:

Ветер - указаны скорость ветра в м/с - средняя за 10 мин, порывы в срок и между сроками (в фигурных скобках) и направление, откуда дует ветер: С - северный, СВ - северо-восточный, В - восточный, ЮВ - юго-восточный, Ю - южный, ЮЗ - юго-западный, З - западный, СЗ - северо-западный.
Видимость - горизонтальная дальность видимости в метрах или километрах. При видимости от 1 до 10 км при отсутствии осадков обычно наблюдается дымка, при ухудшении видимости до 1 км и менее - туман. В сухую погоду видимость может ухудшаться дымом, пылью или мглою.
Явления - указаны атмосферные явления, наблюдавшиеся в срок или в последний час перед сроком; фигурными скобками обозначены явления, наблюдавшиеся между сроками (за 1-3 часа до срока); квадратными скобками обозначены град или гололедные отложения с указанием их диаметра в мм.
Облачность - указаны через наклонную черту общая и нижняя облачность в баллах и высота нижней границы облаков в метрах; квадратными скобками обозначены формы облаков: Ci - перистые, Cs - перисто-слоистые, Cc - перисто-кучевые, Ac - высококучевые, As - высокослоистые, Sc - слоисто-кучевые, Ns - слоисто-дождевые, Cu - кучевые, Cb - кучево-дождевые. Подробнее классификацию облаков см. в Атласе облаков (PDF).
T - Температура воздуха - температура, измеренная на высоте 2 м над землей.
Td - Температура точки росы - температура, при понижении до которой содержащийся в воздухе водяной пар достигнет насыщения.
f - Относительная влажность воздуха - влажноcть воздуха, измеренная на высоте 2 м над землей.
Te - Эффективная температура - температура, которую ощущает одетый по сезону человек в тени. Характеристика душности погоды. При расчете учитывается влияние влажности воздуха и скорости ветра на теплоощущения человека.
Tes - Эффективная температура на солнце - температура, которую ощущает человек, с поправкой на солнечный нагрев. Характеристика знойности погоды. Зависит от высоты солнца над горизонтом, облачности и скорости ветра. Ночью, в пасмурную погоду, а также при ветре 12 м/с и более поправка равна нулю.
P - Атмосферное давление - приведенное к уровню моря атмосферное давление.
Po - Атмосферное давление - измеренное на уровне метеостанции атмосферное давление.
Tmin - Минимальная температура - минимум температуры воздуха на высоте 2 м над землей.
Tmax - Максимальная температура - максимум температуры воздуха на высоте 2 м над землей.
R - Количество осадков - Количество выпавших осадков за период времени, мм. При наведении курсора мыши на число - период времени, за который выпало указанное количество осадков.
R24 - Количество осадков - Количество выпавших осадков за 24 часа, мм.
S - Снежный покров - Высота снежного покрова, см. При наведении курсора мыши на число - состояние снежного покрова и степень покрытия местности в баллах.